Погода в Карагуататубе

Бразилия     23°37′28″S   45°25′23″W
темп.,
°C
ветер,
м/с
пор.,
м/с
влажн.,
%
обл.,
%
осадки,
мм/ч
давл.,
гПа
погр.,
м
1 марта, пн
пн100:00+20вюв1299100 1.0 1014134
03:00+18с0198100 1.0 101323
06:00+17ссз119616 0.0 101323
09:00+23ссв127241 0.0 1015408
12:00+28в125863 0.1 10131302
15:00+24юв338275 0.8 1012410
18:00+20юв239465 1.0 1012192
21:00+18вюв1110081 1.1 101463
2 марта, вт
вт200:00+18ссв1199100 0.0 101452
03:00+18ссз129696 0.0 101341
06:00+17ссз229431 0.0 101443
09:00+23ссз137865 0.0 1016358
12:00+28ссз1257100 0.1 10151280
15:00+25ююв1172100 1.3 1013682
18:00+21вюв129499 1.2 101441
21:00+19св019699 1.3 101523
3 марта, ср
ср300:00+19ссз1294100 0.0 101627
03:00+18ссз2295100 0.0 101549
06:00+18ссз229690 0.0 101684
09:00+23ссз267394 0.0 1017444
12:00+28сз345355 0.0 10161436
15:00+29с024847 0.0 10141780
18:00+21юв139226 0.9 1014105
21:00+19ссз019162 0.9 101623
4 марта, чт
чт400:00+18ссз1188100 0.0 101624
03:00+18ссз1291100 0.0 101442
06:00+18сз229199 0.0 101563
09:00+23ссз2576100 0.0 1015307
12:00+28ссз3552100 0.0 10141401
15:00+29с244998 0.0 10121785
18:00+21з258891 0.9 1011115
21:00+19ссз118995 1.0 101324
5 марта, пт
пт500:00+19ссз128786 0.0 101239
03:00+18сз239093 0.0 101078
06:00+19сз2488100 0.0 1010144
09:00+24ссз377090 0.0 1011736
12:00+27сз386181 0.1 10101598
15:00+25зсз368891 4.4 10081094
18:00+21сз289593 3.1 1008305
21:00+20сз229697 4.7 101066